Location: Harwich
(41.7160°N, 69.9939°W)
Time: 14:46:15
(UTC+01:00)

A-11 Canister half - Pass Details

Date: 08 December 2023
Orbit: 1526 x 1682 km, 47.3° (Epoch: 01 March)

Event Time Altitude Azimuth Distance (km) Brightness Sun altitude
Rises 21:50:07 0° 198° (SSW) 4,880 12.6 2.2°
Reaches altitude 10° 21:53:42 10° 188° (S) 3,911 11.8 1.6°
Maximum altitude 22:02:09 32° 131° (SE) 2,598 10.1 0.3°
Drops below altitude 10° 22:10:39 10° 73° (ENE) 3,942 10.5 -1.1°
Enters shadow 22:13:40 - 66° (ENE) 4,763 10.9 -1.5°
Sets 22:14:14 0° 64° (ENE) 4,925 - -1.6°
